EW3591 Weather Reports


time (UTC)temp
F
wind
direction
speed
knots
gust
knots
rain 1hr
in
rain 24hr
in
rain mn
in
humidity
%
barometer
mb
20211208141319 23 0 0.0 0.0 0.00 0.00 0.00 86 1014.2
20211208141118 23 0 0.0 0.0 0.00 0.00 0.00 86 1014.2
20211208140918 23 0 0.0 0.9 0.00 0.00 0.00 86 1014.2
20211208140717 23 0 0.0 0.9 0.00 0.00 0.00 86 1014.3
20211208140517 23 0 0.0 0.9 0.00 0.00 0.00 86 1014.2
20211208140317 23 306 0.0 0.9 0.00 0.00 0.00 86 1014.1
20211208140116 23 302 0.0 0.9 0.00 0.00 0.00 86 1014.2
20211208135916 23 0 0.0 0.9 0.00 0.00 0.00 87 1014.2
20211208135716 23 0 0.0 0.9 0.00 0.00 0.00 87 1014.3
20211208135515 23 302 0.0 0.9 0.00 0.00 0.00 87 1014.3
20211208135315 23 302 0.0 0.9 0.00 0.00 0.00 87 1014.3
20211208135114 23 0 0.0 0.9 0.00 0.00 0.00 87 1014.3
20211208134914 23 0 0.0 0.9 0.00 0.00 0.00 87 1014.3
20211208134714 23 0 0.0 0.9 0.00 0.00 0.00 87 1014.3
20211208134513 23 302 0.0 0.9 0.00 0.00 0.00 87 1014.3
20211208134313 22 0 0.0 0.9 0.00 0.00 0.00 87 1014.3
20211208134113 22 0 0.0 0.0 0.00 0.00 0.00 87 1014.3
20211208133912 22 0 0.0 0.0 0.00 0.00 0.00 87 1014.3
20211208133712 22 0 0.0 0.0 0.00 0.00 0.00 87 1014.3
20211208133512 22 0 0.0 0.0 0.00 0.00 0.00 87 1014.3
20211208133311 22 0 0.0 0.9 0.00 0.00 0.00 87 1014.5
20211208133111 22 0 0.0 0.9 0.00 0.00 0.00 87 1014.5
20211208132911 22 0 0.0 0.9 0.00 0.00 0.00 87 1014.5
20211208132710 22 315 0.0 0.9 0.00 0.00 0.00 87 1014.5
20211208132510 22 315 0.0 0.9 0.00 0.00 0.00 87 1014.5
20211208132310 22 315 0.0 1.7 0.00 0.00 0.00 87 1014.4
20211208132109 22 315 0.0 1.7 0.00 0.00 0.00 87 1014.6
20211208131909 22 315 0.0 1.7 0.00 0.00 0.00 87 1014.7
20211208131709 22 261 0.0 1.7 0.00 0.00 0.00 87 1014.6
20211208131508 22 251 0.0 1.7 0.00 0.00 0.00 87 1014.6
20211208131308 22 249 0.0 1.7 0.00 0.00 0.00 87 1014.7
20211208131108 22 0 0.0 1.7 0.00 0.00 0.00 87 1014.8
20211208130907 22 0 0.0 0.9 0.00 0.00 0.00 87 1014.8
20211208130707 22 0 0.0 0.9 0.00 0.00 0.00 87 1014.8
20211208130507 22 0 0.0 0.9 0.00 0.00 0.00 87 1014.8
20211208130306 22 249 0.0 0.9 0.00 0.00 0.00 87 1014.8
20211208130106 22 0 0.0 1.7 0.00 0.00 0.00 87 1014.7
20211208125906 22 0 0.0 1.7 0.00 0.00 0.00 87 1014.7
20211208125705 22 0 0.0 1.7 0.00 0.00 0.00 87 1014.8
20211208125505 22 249 0.0 1.7 0.00 0.00 0.00 87 1014.8
20211208125306 21 248 0.0 1.7 0.00 0.00 0.00 87 1014.8
20211208125104 21 248 0.0 1.7 0.00 0.00 0.00 87 1014.9
20211208124904 21 248 0.0 1.7 0.00 0.00 0.00 87 1015.0
20211208124704 21 0 0.0 1.7 0.00 0.00 0.00 87 1015.1
20211208124503 21 0 0.0 1.7 0.00 0.00 0.00 87 1015.1
20211208124303 21 0 0.0 1.7 0.00 0.00 0.00 87 1015.2
20211208124103 21 0 0.0 1.7 0.00 0.00 0.00 87 1015.3
20211208123902 21 248 0.0 1.7 0.00 0.00 0.00 87 1015.4
20211208123702 21 0 0.0 1.7 0.00 0.00 0.00 87 1015.4
20211208123502 21 0 0.0 0.0 0.00 0.00 0.00 87 1015.5
20211208123301 21 0 0.0 0.0 0.00 0.00 0.00 87 1015.5
20211208123101 21 0 0.0 0.0 0.00 0.00 0.00 87 1015.6
20211208122900 21 0 0.0 0.0 0.00 0.00 0.00 87 1015.6
20211208122500 21 0 0.0 1.7 0.00 0.00 0.00 87 1015.7
20211208122259 21 0 0.0 1.7 0.00 0.00 0.00 87 1015.7
20211208122059 21 248 0.0 1.7 0.00 0.00 0.00 87 1015.7
20211208121859 21 248 0.0 1.7 0.00 0.00 0.00 87 1015.7
20211208121658 21 0 0.0 0.0 0.00 0.00 0.00 87 1015.7
20211208121458 21 0 0.0 0.0 0.00 0.00 0.00 87 1015.7
20211208121258 21 0 0.0 0.0 0.00 0.00 0.00 87 1015.7
20211208121057 21 0 0.0 1.7 0.00 0.00 0.00 87 1015.8
20211208120857 20 0 0.0 1.7 0.00 0.00 0.00 87 1015.8
20211208120657 20 0 0.0 1.7 0.00 0.00 0.00 87 1015.8
20211208120456 20 248 0.0 1.7 0.00 0.00 0.00 87 1015.9
20211208120256 20 248 0.0 1.7 0.00 0.00 0.00 87 1016.0
20211208120056 20 0 0.0 0.0 0.00 0.00 0.00 87 1015.9
20211208115855 20 0 0.0 0.9 0.00 0.00 0.00 87 1015.9
20211208115655 20 0 0.0 0.9 0.00 0.00 0.00 87 1016.0
20211208115455 20 0 0.0 1.7 0.00 0.00 0.00 87 1015.9
20211208115254 20 248 0.0 1.7 0.00 0.00 0.00 87 1015.8
20211208115054 20 0 0.0 1.7 0.00 0.00 0.00 87 1015.7
20211208114854 20 248 0.0 1.7 0.00 0.00 0.00 88 1015.7
20211208114653 20 248 0.0 1.7 0.00 0.00 0.00 87 1015.7
20211208114453 20 0 0.0 0.0 0.00 0.00 0.00 87 1015.7
20211208114253 20 0 0.0 1.7 0.00 0.00 0.00 87 1015.7
20211208114053 20 0 0.0 1.7 0.00 0.00 0.00 87 1015.7
20211208113852 20 0 0.0 1.7 0.00 0.00 0.00 87 1015.7
20211208113652 20 248 0.0 1.7 0.00 0.00 0.00 87 1015.8
20211208113451 20 0 0.0 0.0 0.00 0.00 0.00 87 1015.8
20211208113251 20 0 0.0 1.7 0.00 0.00 0.00 87 1015.9
20211208113051 20 0 0.0 1.7 0.00 0.00 0.00 87 1016.0
20211208112850 20 0 0.0 1.7 0.00 0.00 0.00 87 1016.1
20211208112650 20 250 0.0 1.7 0.00 0.00 0.00 87 1016.2
20211208112450 20 255 0.0 1.7 0.00 0.00 0.00 87 1016.2
20211208112249 20 263 0.0 1.7 0.00 0.00 0.00 87 1016.3
20211208112049 20 329 0.0 1.7 0.00 0.00 0.00 87 1016.4
20211208111849 20 56 0.0 1.7 0.00 0.00 0.00 86 1016.4
20211208111648 20 56 0.0 1.7 0.00 0.00 0.00 86 1016.4
20211208111448 20 143 0.0 1.7 0.00 0.00 0.00 86 1016.4
20211208111248 20 229 0.0 1.7 0.00 0.00 0.00 86 1016.3
20211208111047 20 0 0.0 1.7 0.00 0.00 0.00 86 1016.3
20211208110847 20 0 0.0 0.9 0.00 0.00 0.00 86 1016.3
20211208110647 20 0 0.0 1.7 0.00 0.00 0.00 86 1016.2
20211208110446 20 254 0.0 1.7 0.00 0.00 0.00 86 1016.2
20211208110246 20 254 0.0 1.7 0.00 0.00 0.00 86 1016.1
20211208110046 20 234 0.0 1.7 0.00 0.00 0.00 86 1016.1
20211208105845 20 234 0.0 1.7 0.00 0.00 0.00 86 1016.1
20211208105645 20 230 0.0 0.9 0.00 0.00 0.00 86 1016.1
20211208105445 20 230 0.0 0.9 0.00 0.00 0.00 86 1016.1
20211208105244 20 0 0.0 0.0 0.00 0.00 0.00 86 1016.2
20211208105044 20 0 0.0 0.0 0.00 0.00 0.00 86 1016.3
20211208104844 20 0 0.0 1.7 0.00 0.00 0.00 86 1016.2
20211208104643 20 0 0.0 1.7 0.00 0.00 0.00 86 1016.3
20211208104443 20 0 0.0 1.7 0.00 0.00 0.00 86 1016.4
20211208104243 20 231 0.0 1.7 0.00 0.00 0.00 86 1016.5
20211208104042 20 229 0.0 1.7 0.00 0.00 0.00 86 1016.4
20211208103842 20 225 0.0 1.7 0.00 0.00 0.00 86 1016.5
20211208103642 20 225 0.0 1.7 0.00 0.00 0.00 86 1016.5
20211208103441 20 237 0.0 1.7 0.00 0.00 0.00 86 1016.5
20211208103241 20 0 0.0 1.7 0.00 0.00 0.00 86 1016.5
20211208103041 20 235 0.0 0.9 0.00 0.00 0.00 86 1016.5
20211208102840 20 210 0.0 0.9 0.00 0.00 0.00 86 1016.5
20211208102640 20 0 0.0 0.9 0.00 0.00 0.00 86 1016.5
20211208102439 20 0 0.0 0.9 0.00 0.00 0.00 86 1016.6
20211208102239 20 0 0.0 0.9 0.00 0.00 0.00 86 1016.6
20211208102039 20 0 0.0 1.7 0.00 0.00 0.00 86 1016.6
20211208101838 20 193 0.0 1.7 0.00 0.00 0.00 86 1016.7
20211208101638 20 216 0.0 1.7 0.00 0.00 0.00 86 1016.7
20211208101438 20 237 0.0 1.7 0.00 0.00 0.00 86 1016.7
20211208101237 20 0 0.0 0.9 0.00 0.00 0.00 86 1016.7
20211208101037 20 0 0.0 1.7 0.00 0.00 0.00 86 1016.7
20211208100837 20 249 0.0 1.7 0.00 0.00 0.00 86 1016.7
20211208100636 20 249 0.0 1.7 0.00 0.00 0.00 86 1016.6
20211208100436 20 291 0.0 1.7 0.00 0.00 0.00 86 1016.6
20211208100236 20 34 0.0 1.7 0.00 0.00 0.00 86 1016.7
20211208100035 20 252 0.0 1.7 0.00 0.00 0.00 86 1016.7
20211208095835 20 252 0.0 1.7 0.00 0.00 0.00 86 1016.8
20211208095635 20 252 0.0 1.7 0.00 0.00 0.00 86 1016.9
20211208095434 20 251 0.0 1.7 0.00 0.00 0.00 86 1016.9
20211208095234 20 246 0.0 1.7 0.00 0.00 0.00 86 1016.9
20211208095034 20 246 0.0 1.7 0.00 0.00 0.00 86 1016.9
20211208094833 20 263 0.0 1.7 0.00 0.00 0.00 86 1017.0
20211208094632 20 0 0.0 1.7 0.00 0.00 0.00 86 1017.0
20211208094432 20 253 0.0 1.7 0.00 0.00 0.00 86 1016.9
20211208094232 20 253 0.0 1.7 0.00 0.00 0.00 86 1016.9
20211208094031 20 253 0.0 1.7 0.00 0.00 0.00 86 1016.9
20211208093831 20 253 0.0 1.7 0.00 0.00 0.00 86 1016.8
20211208093631 20 253 0.0 1.7 0.00 0.00 0.00 86 1016.9
20211208093430 20 252 0.0 1.7 0.00 0.00 0.00 86 1016.9
20211208093230 20 234 0.0 1.7 0.00 0.00 0.00 85 1016.9
20211208093030 20 239 0.0 1.7 0.00 0.00 0.00 85 1016.9
20211208092829 20 251 0.0 1.7 0.00 0.00 0.00 85 1016.9
20211208092629 20 253 0.0 1.7 0.00 0.00 0.00 85 1016.8
20211208092428 20 258 0.0 1.7 0.00 0.00 0.00 86 1016.7
20211208092228 20 0 0.0 1.7 0.00 0.00 0.00 85 1016.8
20211208092028 20 0 0.0 1.7 0.00 0.00 0.00 85 1016.8
20211208091827 20 258 0.0 1.7 0.00 0.00 0.00 85 1016.8
20211208091626 20 258 0.0 1.7 0.00 0.00 0.00 86 1016.9
20211208091426 20 0 0.0 1.7 0.00 0.00 0.00 86 1016.9
20211208091226 20 258 0.0 1.7 0.00 0.00 0.00 85 1016.9
20211208091025 20 258 0.0 1.7 0.00 0.00 0.00 85 1016.9
20211208090825 20 258 0.0 1.7 0.00 0.00 0.00 85 1016.9
20211208090625 20 258 0.0 1.7 0.00 0.00 0.00 85 1016.9
20211208090424 20 258 0.0 1.7 0.00 0.00 0.00 85 1016.9
20211208090224 20 0 0.0 1.7 0.00 0.00 0.00 85 1016.9
20211208090024 20 258 0.0 1.7 0.00 0.00 0.00 85 1016.9
20211208085823 20 266 0.0 1.7 0.00 0.00 0.00 85 1017.0
20211208085623 20 0 0.0 0.9 0.00 0.00 0.00 85 1016.9
20211208085423 20 0 0.0 0.9 0.00 0.00 0.00 85 1017.0
20211208085222 20 0 0.0 0.9 0.00 0.00 0.00 85 1017.0
20211208085022 20 272 0.0 0.9 0.00 0.00 0.00 84 1017.0
20211208084821 20 272 0.0 0.9 0.00 0.00 0.00 84 1017.0
20211208084621 20 272 0.0 0.9 0.00 0.00 0.00 84 1017.1
20211208084420 20 0 0.0 0.9 0.00 0.00 0.00 84 1017.1
20211208084220 20 0 0.0 0.9 0.00 0.00 0.00 84 1017.2
20211208084020 20 0 0.0 0.9 0.00 0.00 0.00 84 1017.4
20211208083818 20 219 0.0 1.7 0.00 0.00 0.00 84 1017.4
20211208083618 20 219 0.0 1.7 0.00 0.00 0.00 84 1017.4
20211208083418 20 0 0.0 1.7 0.00 0.00 0.00 84 1017.4
20211208083217 20 217 0.0 1.7 0.00 0.00 0.00 84 1017.5
20211208083017 20 216 0.0 1.7 0.00 0.00 0.00 84 1017.5
20211208082817 20 216 0.0 1.7 0.00 0.00 0.00 84 1017.5
20211208082616 20 216 0.0 1.7 0.00 0.00 0.00 84 1017.7
20211208082416 20 0 0.0 0.0 0.00 0.00 0.00 83 1017.8
20211208082216 20 0 0.0 0.0 0.00 0.00 0.00 82 1017.8
20211208082015 20 0 0.0 0.0 0.00 0.00 0.00 82 1017.9
20211208081815 20 0 0.0 1.7 0.00 0.00 0.00 81 1017.9
20211208081615 20 0 0.0 1.7 0.00 0.00 0.00 81 1017.9
20211208081414 20 0 0.0 1.7 0.00 0.00 0.00 80 1018.0
20211208081214 20 216 0.0 1.7 0.00 0.00 0.00 80 1018.0
20211208081014 20 216 0.0 1.7 0.00 0.00 0.00 80 1018.0
20211208080813 20 0 0.0 0.0 0.00 0.00 0.00 80 1018.1
20211208080613 20 0 0.0 0.0 0.00 0.00 0.00 80 1018.1
20211208080413 20 0 0.0 0.0 0.00 0.00 0.00 80 1018.2
20211208080212 20 0 0.0 0.0 0.00 0.00 0.00 80 1018.1
20211208080012 21 0 0.0 0.0 0.00 0.00 0.00 80 1018.2
20211208075811 21 0 0.0 0.0 0.00 0.00 0.00 80 1018.4
20211208075611 21 0 0.0 0.0 0.00 0.00 0.00 79 1018.4
20211208075411 20 0 0.0 0.0 0.00 0.00 0.00 79 1018.5
20211208075211 20 0 0.0 0.0 0.00 0.00 0.00 79 1018.6
20211208075010 20 0 0.0 0.0 0.00 0.00 0.00 78 1018.5
20211208074810 20 0 0.0 0.9 0.00 0.00 0.00 77 1018.5
20211208074610 20 0 0.0 1.7 0.00 0.00 0.00 77 1018.5
20211208074409 20 0 0.0 2.6 0.00 0.00 0.00 76 1018.5
20211208074209 20 216 0.0 2.6 0.00 0.00 0.00 76 1018.5
20211208074009 20 218 0.0 2.6 0.00 0.00 0.00 76 1018.5
20211208073808 20 199 0.0 2.6 0.00 0.00 0.00 76 1018.4
20211208073608 21 132 0.0 1.7 0.00 0.00 0.00 76 1018.4
20211208073407 21 0 0.0 1.7 0.00 0.00 0.00 75 1018.4
20211208073007 21 124 0.0 1.7 0.00 0.00 0.00 74 1018.4
20211208072806 21 111 0.0 1.7 0.00 0.00 0.00 74 1018.3
20211208072606 21 103 0.0 0.9 0.00 0.00 0.00 74 1018.3
20211208072406 21 0 0.0 0.9 0.00 0.00 0.00 74 1018.2
20211208072205 21 102 0.0 1.7 0.00 0.00 0.00 73 1018.2
20211208072005 21 111 0.0 1.7 0.00 0.00 0.00 73 1018.2
20211208071805 21 134 0.0 1.7 0.00 0.00 0.00 73 1018.2
20211208071604 21 114 0.0 1.7 0.00 0.00 0.00 74 1018.4
20211208071404 21 106 0.0 1.7 0.00 0.00 0.00 73 1018.3
20211208071204 21 41 0.0 1.7 0.00 0.00 0.00 73 1018.3
20211208071003 21 41 0.0 1.7 0.00 0.00 0.00 72 1018.3
20211208070802 21 41 0.0 0.9 0.00 0.00 0.00 72 1018.3
20211208070602 21 0 0.0 0.0 0.00 0.00 0.00 72 1018.2
20211208070402 21 0 0.0 0.0 0.00 0.00 0.00 72 1018.2
20211208070201 21 0 0.0 0.0 0.00 0.00 0.00 72 1018.2
20211208070001 21 0 0.0 0.0 0.00 0.00 0.00 72 1018.1
20211208065801 21 0 0.0 0.0 0.00 0.00 0.00 72 1018.0
20211208065600 21 0 0.0 0.0 0.00 0.00 0.00 72 1018.1
20211208065400 21 0 0.0 1.7 0.00 0.00 0.00 71 1018.1
20211208065200 21 0 0.0 1.7 0.00 0.00 0.00 72 1018.1
20211208064959 21 0 0.0 1.7 0.00 0.00 0.00 71 1018.0
20211208064759 21 0 0.0 1.7 0.00 0.00 0.00 71 1018.0
20211208064559 21 41 0.0 1.7 0.00 0.00 0.00 71 1017.9
20211208064358 21 0 0.0 1.7 0.00 0.00 0.00 72 1018.1
20211208064158 20 0 0.0 1.7 0.00 0.00 0.00 71 1018.1
20211208063958 21 0 0.0 1.7 0.00 0.00 0.00 72 1018.1
20211208063757 20 41 0.0 1.7 0.00 0.00 0.00 72 1018.0
20211208063557 20 41 0.0 1.7 0.00 0.00 0.00 72 1018.0
20211208063357 20 0 0.0 0.0 0.00 0.00 0.00 72 1018.0
20211208063156 20 0 0.0 0.0 0.00 0.00 0.00 72 1018.0
20211208062956 20 0 0.0 0.0 0.00 0.00 0.00 72 1018.0
20211208062755 21 0 0.0 0.9 0.00 0.00 0.00 73 1018.0
20211208062555 20 0 0.0 1.7 0.00 0.00 0.00 73 1018.2
20211208062355 20 0 0.0 1.7 0.00 0.00 0.00 73 1018.0
20211208062154 20 41 0.0 1.7 0.00 0.00 0.00 73 1018.1
20211208061954 20 41 0.0 1.7 0.00 0.00 0.00 73 1018.1
20211208061754 20 41 0.0 1.7 0.00 0.00 0.00 72 1018.1
20211208061553 20 41 0.0 1.7 0.00 0.00 0.00 73 1018.2
20211208061353 20 0 0.0 0.0 0.00 0.00 0.00 72 1018.2
20211208061153 20 0 0.0 0.0 0.00 0.00 0.00 72 1018.2
20211208060952 20 0 0.0 0.0 0.00 0.00 0.00 72 1018.2
20211208060752 20 0 0.0 0.0 0.00 0.00 0.00 72 1018.2
20211208060551 20 0 0.0 0.0 0.00 0.00 0.00 73 1018.2
20211208060351 20 0 0.0 1.7 0.00 0.00 0.00 73 1018.1
20211208060151 20 0 0.0 1.7 0.00 0.00 0.00 73 1018.1
20211208055951 20 0 0.0 1.7 0.00 0.00 0.00 73 1018.1
20211208055750 20 41 0.0 1.7 0.00 0.00 0.00 73 1018.2
20211208055550 20 41 0.0 1.7 0.00 0.00 0.00 73 1018.2
20211208055350 20 28 0.0 1.7 0.00 0.00 0.00 72 1018.2
20211208055149 20 19 0.0 1.7 0.00 0.00 0.00 73 1018.2
20211208054949 20 356 0.0 1.7 0.00 0.00 0.00 74 1018.2
20211208054748 20 355 0.0 1.7 0.00 0.00 0.00 74 1018.2
20211208054548 20 355 0.0 1.7 0.00 0.00 0.00 74 1018.1
20211208054348 20 0 0.0 0.0 0.00 0.00 0.00 74 1018.2
20211208054148 20 0 0.0 0.0 0.00 0.00 0.00 74 1018.2
20211208053947 20 0 0.0 0.0 0.00 0.00 0.00 74 1018.2
20211208053747 20 0 0.0 0.0 0.00 0.00 0.00 74 1018.2
20211208053546 20 0 0.0 0.0 0.00 0.00 0.00 74 1018.2
20211208053346 20 0 0.0 0.0 0.00 0.00 0.00 74 1018.3
20211208053146 20 0 0.0 1.7 0.00 0.00 0.00 74 1018.4
20211208052945 20 0 0.0 1.7 0.00 0.00 0.00 74 1018.4
20211208052745 20 0 0.0 1.7 0.00 0.00 0.00 74 1018.4
20211208052545 20 353 0.0 1.7 0.00 0.00 0.00 74 1018.4
20211208052344 20 353 0.0 1.7 0.00 0.00 0.00 74 1018.5
20211208052144 20 353 0.0 1.7 0.00 0.00 0.00 74 1018.5
20211208051944 20 353 0.0 1.7 0.00 0.00 0.00 74 1018.6
20211208051743 20 0 0.0 1.7 0.00 0.00 0.00 74 1018.5
20211208051543 20 0 0.0 1.7 0.00 0.00 0.00 74 1018.6
20211208051343 20 0 0.0 1.7 0.00 0.00 0.00 74 1018.6
20211208051143 20 353 0.0 1.7 0.00 0.00 0.00 73 1018.6
20211208050942 20 353 0.0 1.7 0.00 0.00 0.00 74 1018.7
20211208050742 20 15 0.0 1.7 0.00 0.00 0.00 74 1018.6
20211208050541 20 25 0.0 1.7 0.00 0.00 0.00 74 1018.7
20211208050341 20 20 0.0 1.7 0.00 0.00 0.00 74 1018.6
20211208050141 20 16 0.0 1.7 0.00 0.00 0.00 74 1018.6
20211208045941 20 0 0.0 1.7 0.00 0.00 0.00 74 1018.6
20211208045740 20 19 0.0 1.7 0.00 0.00 0.00 74 1018.6
20211208045540 20 40 0.0 1.7 0.00 0.00 0.00 74 1018.6
20211208045340 20 86 0.0 1.7 0.00 0.00 0.00 74 1018.6
20211208045139 20 89 0.0 1.7 0.00 0.00 0.00 74 1018.7
20211208044939 20 38 0.0 1.7 0.00 0.00 0.00 75 1018.7
20211208044738 20 61 0.0 1.7 0.00 0.00 0.00 75 1018.7
20211208044538 19 81 0.0 1.7 0.00 0.00 0.00 75 1018.8
20211208044338 19 79 0.0 1.7 0.00 0.00 0.00 75 1018.9
20211208044138 19 32 0.0 1.7 0.00 0.00 0.00 75 1019.0
20211208043937 19 95 0.0 1.7 0.00 0.00 0.00 75 1019.0
20211208043737 19 61 0.0 1.7 0.00 0.00 0.00 75 1019.2
20211208043536 19 32 0.0 1.7 0.00 0.00 0.00 75 1019.2
20211208043336 19 30 0.0 1.7 0.00 0.00 0.00 75 1019.3
20211208043136 19 0 0.0 0.0 0.00 0.00 0.00 75 1019.3
20211208042935 19 0 0.0 0.9 0.00 0.00 0.00 75 1019.3
20211208042735 19 0 0.0 0.9 0.00 0.00 0.00 75 1019.4
20211208042535 19 0 0.0 0.9 0.00 0.00 0.00 75 1019.4
20211208042334 19 294 0.0 0.9 0.00 0.00 0.00 75 1019.3
20211208042134 19 294 0.0 0.9 0.00 0.00 0.00 75 1019.3
20211208041934 19 0 0.0 0.0 0.00 0.00 0.00 75 1019.4
20211208041733 19 0 0.0 0.0 0.00 0.00 0.00 75 1019.4
20211208041533 19 0 0.0 0.0 0.00 0.00 0.00 75 1019.5
20211208041333 19 0 0.0 0.0 0.00 0.00 0.00 74 1019.6
20211208041132 19 0 0.0 0.0 0.00 0.00 0.00 75 1019.6
20211208040932 19 0 0.0 1.7 0.00 0.00 0.00 74 1019.6
20211208040732 19 0 0.0 1.7 0.00 0.00 0.00 74 1019.7
20211208040531 19 0 0.0 1.7 0.00 0.00 0.00 74 1019.6
20211208040331 19 0 0.0 1.7 0.00 0.00 0.00 74 1019.6
20211208040131 19 49 0.0 1.7 0.00 0.00 0.00 74 1019.6
20211208035930 19 0 0.0 1.7 0.00 0.00 0.00 75 1019.6
20211208035730 19 0 0.0 1.7 0.00 0.00 0.00 75 1019.6
20211208035530 19 55 0.0 1.7 0.00 0.00 0.00 75 1019.5
20211208035330 19 55 0.0 1.7 0.00 0.00 0.00 75 1019.6
20211208035129 19 68 0.0 1.7 0.00 0.00 0.00 75 1019.5
20211208034929 19 68 0.0 1.7 0.00 0.00 0.00 74 1019.5
20211208034728 19 80 0.0 1.7 0.00 0.00 0.00 75 1019.5
20211208034528 19 90 0.0 1.7 0.00 0.00 0.00 75 1019.6
20211208034328 19 103 0.0 1.7 0.00 0.00 0.00 75 1019.7
20211208034128 19 0 0.0 1.7 0.00 0.00 0.00 75 1019.6
20211208033927 19 0 0.0 1.7 0.00 0.00 0.00 75 1019.7
20211208033727 19 103 0.0 1.7 0.00 0.00 0.00 75 1019.8
20211208033526 19 103 0.0 1.7 0.00 0.00 0.00 75 1019.7
20211208033326 19 0 0.0 1.7 0.00 0.00 0.00 75 1019.7
20211208033126 19 103 0.0 1.7 0.00 0.00 0.00 75 1019.8
20211208032925 19 103 0.0 1.7 0.00 0.00 0.00 76 1019.7
20211208032525 19 57 0.0 1.7 0.00 0.00 0.00 76 1019.8
20211208032324 19 78 0.0 1.7 0.00 0.00 0.00 76 1019.9
20211208032124 18 39 0.0 1.7 0.00 0.00 0.00 76 1019.8
20211208031924 18 15 0.0 1.7 0.00 0.00 0.00 76 1019.8
20211208031723 18 4 0.0 1.7 0.00 0.00 0.00 76 1019.8
20211208031523 18 337 0.0 1.7 0.00 0.00 0.00 77 1019.8
20211208031323 18 332 0.0 1.7 0.00 0.00 0.00 76 1019.7
20211208031122 18 360 0.0 1.7 0.00 0.00 0.00 77 1019.8
20211208030922 18 20 0.0 1.7 0.00 0.00 0.00 77 1019.9
20211208030722 18 213 0.0 0.9 0.00 0.00 0.00 77 1019.9
20211208030521 18 0 0.0 0.0 0.00 0.00 0.00 77 1020.0
20211208030321 18 0 0.0 0.0 0.00 0.00 0.00 76 1020.1
20211208030121 18 0 0.0 0.9 0.00 0.00 0.00 76 1020.1
20211208025920 18 0 0.0 0.9 0.00 0.00 0.00 76 1020.1
20211208025720 18 0 0.0 0.9 0.00 0.00 0.00 76 1020.1
20211208025519 18 213 0.0 0.9 0.00 0.00 0.00 76 1020.1
20211208025319 18 213 0.0 0.9 0.00 0.00 0.00 76 1020.2
20211208025119 19 0 0.0 0.9 0.00 0.00 0.00 76 1020.2
20211208024919 19 213 0.0 0.9 0.00 0.00 0.00 76 1020.2
20211208024718 19 213 0.0 0.9 0.00 0.00 0.00 76 1020.1
20211208024518 19 213 0.0 0.9 0.00 0.00 0.00 76 1020.1
20211208024318 19 213 0.0 0.9 0.00 0.00 0.00 76 1020.1
20211208024117 19 202 0.0 0.9 0.00 0.00 0.00 76 1020.1
20211208023917 19 200 0.0 0.9 0.00 0.00 0.00 76 1020.1
20211208023716 19 198 0.0 0.9 0.00 0.00 0.00 76 1020.1
20211208023516 19 179 0.0 1.7 0.00 0.00 0.00 76 1020.0
20211208023316 19 156 0.0 1.7 0.00 0.00 0.00 76 1020.0
20211208022915 19 113 0.0 1.7 0.00 0.00 0.00 76 1020.0
20211208022715 19 109 0.0 1.7 0.00 0.00 0.00 76 1020.0
20211208022515 19 126 0.0 1.7 0.00 0.00 0.00 76 1020.1
20211208022314 19 127 0.0 1.7 0.00 0.00 0.00 76 1020.2
20211208022114 19 0 0.0 1.7 0.00 0.00 0.00 76 1020.3
20211208021914 19 95 0.0 1.7 0.00 0.00 0.00 76 1020.3
20211208021712 19 69 0.0 1.7 0.00 0.00 0.00 76 1020.4
20211208021512 19 10 0.0 1.7 0.00 0.00 0.00 76 1020.5
20211208021312 19 347 0.0 1.7 0.00 0.00 0.00 76 1020.5
20211208021112 19 153 0.0 3.5 0.00 0.00 0.00 76 1020.5
20211208020911 20 96 0.0 3.5 0.00 0.00 0.00 76 1020.5
20211208020711 20 85 0.0 3.5 0.00 0.00 0.00 76 1020.5
20211208020510 20 63 0.9 3.5 0.00 0.00 0.00 76 1020.5
20211208020310 20 93 0.9 3.5 0.00 0.00 0.00 76 1020.5
20211208020110 20 133 0.9 3.5 0.00 0.00 0.00 77 1020.5
20211208015909 20 144 0.9 2.6 0.00 0.00 0.00 77 1020.6
20211208015709 19 117 0.0 1.7 0.00 0.00 0.00 77 1020.6
20211208015509 20 150 0.0 1.7 0.00 0.00 0.00 77 1020.6
20211208015308 19 217 0.0 1.7 0.00 0.00 0.00 77 1020.6
20211208015108 19 219 0.0 1.7 0.00 0.00 0.00 78 1020.6
20211208014908 19 177 0.0 1.7 0.00 0.00 0.00 77 1020.6
20211208014707 20 135 0.0 1.7 0.00 0.00 0.00 78 1020.5
20211208014507 20 84 0.0 1.7 0.00 0.00 0.00 78 1020.5
20211208014307 20 71 0.0 1.7 0.00 0.00 0.00 78 1020.5
20211208014106 20 99 0.0 1.7 0.00 0.00 0.00 78 1020.5
20211208013906 20 176 0.0 1.7 0.00 0.00 0.00 78 1020.5
20211208013706 20 148 0.0 1.7 0.00 0.00 0.00 78 1020.6
20211208013505 20 75 0.0 1.7 0.00 0.00 0.00 78 1020.6
20211208013305 20 42 0.0 1.7 0.00 0.00 0.00 78 1020.6
20211208013105 20 1 0.0 1.7 0.00 0.00 0.00 78 1020.6
20211208012904 20 337 0.0 1.7 0.00 0.00 0.00 78 1020.7
20211208012703 20 241 0.0 1.7 0.00 0.00 0.00 78 1020.7
20211208012503 19 242 0.0 1.7 0.00 0.00 0.00 78 1020.7
20211208012305 20 242 0.0 1.7 0.00 0.00 0.00 78 1020.6
20211208012102 19 219 0.0 1.7 0.00 0.00 0.00 78 1020.5
20211208011902 19 203 0.0 1.7 0.00 0.00 0.00 79 1020.5
20211208011701 19 203 0.0 1.7 0.00 0.00 0.00 79 1020.5
20211208011500 19 246 0.0 1.7 0.00 0.00 0.00 79 1020.5
20211208011300 19 246 0.0 1.7 0.00 0.00 0.00 79 1020.5
20211208011100 19 160 0.0 1.7 0.00 0.00 0.00 79 1020.5
20211208010859 19 160 0.0 0.9 0.00 0.00 0.00 79 1020.5
20211208010659 19 160 0.0 0.9 0.00 0.00 0.00 79 1020.4
20211208010459 19 161 0.0 0.9 0.00 0.00 0.00 79 1020.5
20211208010258 19 165 0.0 0.9 0.00 0.00 0.00 79 1020.4
20211208010058 19 0 0.0 0.0 0.00 0.00 0.00 79 1020.3
20211208005858 20 0 0.0 0.0 0.00 0.00 0.00 78 1020.3
20211208005657 20 0 0.0 0.9 0.00 0.00 0.00 79 1020.3
20211208005456 20 0 0.0 0.9 0.00 0.00 0.00 78 1020.2
20211208005256 20 0 0.0 0.9 0.00 0.00 0.00 78 1020.1
20211208005056 20 168 0.0 1.7 0.00 0.00 0.00 77 1020.0
20211208004855 20 0 0.0 1.7 0.00 0.00 0.00 77 1020.1
20211208004655 20 0 0.0 1.7 0.00 0.00 0.00 77 1020.2
20211208004455 20 138 0.0 1.7 0.00 0.00 0.00 76 1020.2
20211208004254 20 137 0.0 1.7 0.00 0.00 0.00 77 1020.3
20211208004054 20 213 0.0 1.7 0.00 0.00 0.00 77 1020.4
20211208003854 20 180 0.9 1.7 0.00 0.00 0.00 76 1020.5
20211208003652 20 185 0.9 1.7 0.00 0.00 0.00 76 1020.4
20211208003452 20 226 0.0 1.7 0.00 0.00 0.00 76 1020.4
20211208003252 20 222 0.0 1.7 0.00 0.00 0.00 76 1020.5
20211208003052 21 216 0.0 1.7 0.00 0.00 0.00 75 1020.5
20211208002851 21 205 0.0 1.7 0.00 0.00 0.00 75 1020.5
20211208002651 21 171 0.0 1.7 0.00 0.00 0.00 75 1020.5
20211208002451 21 214 0.0 1.7 0.00 0.00 0.00 75 1020.6
20211208002250 21 259 0.0 1.7 0.00 0.00 0.00 75 1020.6
20211208002050 21 261 0.0 1.7 0.00 0.00 0.00 75 1020.6
20211208001850 21 265 0.0 2.6 0.00 0.00 0.00 75 1020.8
20211208001648 21 255 0.0 2.6 0.00 0.00 0.00 75 1020.7
20211208001448 21 132 0.0 2.6 0.00 0.00 0.00 75 1020.7
20211208001248 21 184 0.0 2.6 0.00 0.00 0.00 75 1020.8
20211208001047 21 163 0.9 2.6 0.00 0.00 0.00 75 1020.8
20211208000847 21 84 0.0 2.6 0.00 0.00 0.00 75 1020.8
20211208000647 21 242 0.0 1.7 0.00 0.00 0.00 75 1020.8
20211208000446 21 260 0.0 1.7 0.00 0.00 0.00 75 1020.7
20211208000248 21 244 0.0 1.7 0.00 0.00 0.00 75 1020.7
20211208000046 21 165 0.0 1.7 0.00 0.00 0.00 75 1020.6
20211207235845 21 157 0.0 1.7 0.00 0.00 0.00 75 1020.5
20211207235645 21 133 0.0 1.7 0.00 0.00 0.00 75 1020.4
20211207235445 21 155 0.0 2.6 0.00 0.00 0.00 75 1020.5
20211207235244 21 227 0.0 2.6 0.00 0.00 0.00 75 1020.4
20211207235044 21 231 0.0 2.6 0.00 0.00 0.00 75 1020.3
20211207234844 22 204 0.0 2.6 0.00 0.00 0.00 75 1020.4
20211207234643 22 198 0.0 2.6 0.00 0.00 0.00 74 1020.3
20211207234443 22 232 0.0 1.7 0.00 0.00 0.00 74 1020.3
20211207234243 22 235 0.0 3.5 0.00 0.00 0.00 74 1020.2
20211207234042 22 177 0.0 3.5 0.00 0.00 0.00 74 1020.2
20211207233842 22 201 0.0 3.5 0.00 0.00 0.00 74 1020.1
20211207233641 22 119 0.0 3.5 0.00 0.00 0.00 74 1020.2
20211207233440 22 114 0.0 3.5 0.00 0.00 0.00 74 1020.3
20211207233240 22 111 0.0 1.7 0.00 0.00 0.00 74 1020.3
20211207233040 22 63 0.0 1.7 0.00 0.00 0.00 74 1020.3
20211207232839 22 63 0.0 1.7 0.00 0.00 0.00 74 1020.3
20211207232639 22 344 0.0 1.7 0.00 0.00 0.00 73 1020.4
20211207232438 22 342 0.0 1.7 0.00 0.00 0.00 73 1020.4
20211207232238 22 4 0.0 1.7 0.00 0.00 0.00 73 1020.5
20211207232038 22 92 0.0 3.5 0.00 0.00 0.00 73 1020.5
20211207231838 22 126 0.0 3.5 0.00 0.00 0.00 73 1020.5
20211207231636 22 110 0.0 3.5 0.00 0.00 0.00 73 1020.6
20211207231436 22 202 0.0 3.5 0.00 0.00 0.00 73 1020.5
20211207231236 22 135 0.9 3.5 0.00 0.00 0.00 73 1020.5
20211207231035 22 136 0.0 3.5 0.00 0.00 0.00 73 1020.4
20211207230835 23 215 0.0 2.6 0.00 0.00 0.00 72 1020.5
20211207230635 23 196 0.0 2.6 0.00 0.00 0.00 72 1020.4
20211207230434 23 185 0.0 2.6 0.00 0.00 0.00 72 1020.4
20211207230234 23 103 0.0 2.6 0.00 0.00 0.00 72 1020.5
20211207230034 23 179 0.0 2.6 0.00 0.00 0.00 72 1020.6
20211207225833 23 125 0.0 1.7 0.00 0.00 0.00 72 1020.6
20211207225633 23 196 0.9 1.7 0.00 0.00 0.00 72 1020.7
20211207225433 23 176 0.9 3.5 0.00 0.00 0.00 72 1020.8
20211207225232 23 153 0.9 3.5 0.00 0.00 0.00 72 1020.8
20211207225032 23 173 0.0 3.5 0.00 0.00 0.00 72 1020.7
20211207224832 23 154 0.0 3.5 0.00 0.00 0.00 72 1020.7
20211207224631 23 198 0.9 3.5 0.00 0.00 0.00 72 1020.7
20211207224431 23 179 0.0 1.7 0.00 0.00 0.00 72 1020.6
20211207224231 23 122 0.0 1.7 0.00 0.00 0.00 72 1020.6
20211207224030 23 75 0.0 1.7 0.00 0.00 0.00 72 1020.6
20211207223830 23 38 0.0 1.7 0.00 0.00 0.00 72 1020.7
20211207223630 23 345 0.0 1.7 0.00 0.00 0.00 72 1020.7
20211207223429 23 304 0.0 1.7 0.00 0.00 0.00 72 1020.7
20211207223229 23 278 0.0 1.7 0.00 0.00 0.00 72 1020.6
20211207223029 23 336 0.0 1.7 0.00 0.00 0.00 72 1020.6
20211207222828 23 50 0.0 4.3 0.00 0.00 0.00 71 1020.5
20211207222628 23 108 0.0 4.3 0.00 0.00 0.00 72 1020.6
20211207222428 23 74 0.0 4.3 0.00 0.00 0.00 72 1020.6
20211207222227 24 29 0.0 4.3 0.00 0.00 0.00 71 1020.5
20211207222027 24 221 0.9 2.6 0.00 0.00 0.00 71 1020.4
20211207221827 24 171 0.0 2.6 0.00 0.00 0.00 71 1020.5
20211207221626 24 211 0.0 1.7 0.00 0.00 0.00 71 1020.5
20211207221426 24 196 0.9 1.7 0.00 0.00 0.00 71 1020.5
20211207221226 24 183 0.0 1.7 0.00 0.00 0.00 71 1020.6
20211207221025 24 132 0.0 1.7 0.00 0.00 0.00 71 1020.5
20211207220825 24 240 0.0 2.6 0.00 0.00 0.00 71 1020.6
20211207220625 24 224 0.0 5.2 0.00 0.00 0.00 71 1020.6
20211207220424 24 147 0.0 5.2 0.00 0.00 0.00 71 1020.6
20211207220224 24 185 0.9 5.2 0.00 0.00 0.00 70 1020.7
20211207220024 24 149 0.9 7.8 0.00 0.00 0.00 70 1020.8
20211207215823 24 161 0.9 7.8 0.00 0.00 0.00 70 1021.0
20211207215623 24 155 0.9 7.8 0.00 0.00 0.00 70 1021.0
20211207215423 24 135 1.7 7.8 0.00 0.00 0.00 70 1021.0
20211207215222 24 162 0.9 7.8 0.00 0.00 0.00 70 1020.9
20211207215022 24 155 0.9 7.8 0.00 0.00 0.00 70 1020.8
20211207214822 24 217 0.9 7.8 0.00 0.00 0.00 70 1020.8
20211207214621 25 223 0.9 7.8 0.00 0.00 0.00 70 1020.7
20211207214421 25 132 1.7 7.8 0.00 0.00 0.00 70 1020.8
20211207214221 25 148 0.9 5.2 0.00 0.00 0.00 70 1020.8
20211207214020 25 228 1.7 5.2 0.00 0.00 0.00 70 1020.8
20211207213820 25 265 0.9 7.0 0.00 0.00 0.00 71 1020.8
20211207213619 25 260 0.9 7.0 0.00 0.00 0.00 70 1020.8
20211207213419 25 211 1.7 7.0 0.00 0.00 0.00 70 1021.0
20211207213219 25 161 2.6 7.0 0.00 0.00 0.00 70 1020.9
20211207213019 25 96 1.7 7.0 0.00 0.00 0.00 71 1020.9
20211207212818 25 225 0.9 5.2 0.00 0.00 0.00 70 1020.9
20211207212618 25 134 0.9 7.0 0.00 0.00 0.00 70 1020.9
20211207212417 25 227 1.7 7.0 0.00 0.00 0.00 71 1020.9
20211207212217 25 159 1.7 7.0 0.00 0.00 0.00 70 1020.9
20211207212017 25 103 0.9 7.0 0.00 0.00 0.00 71 1020.9
20211207211817 25 71 1.7 7.0 0.00 0.00 0.00 70 1020.8
20211207211616 25 128 0.9 4.3 0.00 0.00 0.00 70 1020.8
20211207211416 25 192 0.9 4.3 0.00 0.00 0.00 71 1020.8
20211207211216 25 152 1.7 4.3 0.00 0.00 0.00 70 1020.8
20211207211015 25 187 1.7 4.3 0.00 0.00 0.00 70 1020.7
20211207210815 25 200 0.9 3.5 0.00 0.00 0.00 70 1020.6
20211207210614 25 124 0.9 5.2 0.00 0.00 0.00 71 1020.4
20211207210414 25 139 0.9 5.2 0.00 0.00 0.00 71 1020.4
20211207210214 26 167 0.9 5.2 0.00 0.00 0.00 70 1020.4
20211207210013 26 150 1.7 5.2 0.00 0.00 0.00 70 1020.5
20211207205813 26 165 1.7 7.0 0.00 0.00 0.00 70 1020.5
20211207205613 26 140 0.9 7.0 0.00 0.00 0.00 70 1020.3
20211207205412 26 112 0.9 7.0 0.00 0.00 0.00 69 1020.3
20211207205212 26 151 0.9 7.0 0.00 0.00 0.00 68 1020.2
20211207205012 26 246 1.7 7.0 0.00 0.00 0.00 68 1020.2
20211207204811 26 176 0.9 6.1 0.00 0.00 0.00 68 1020.1
20211207204611 26 192 1.7 6.1 0.00 0.00 0.00 68 1020.1
20211207204411 26 193 0.9 5.2 0.00 0.00 0.00 68 1020.2
20211207204210 26 117 0.9 4.3 0.00 0.00 0.00 68 1020.1
20211207204010 26 123 0.9 6.1 0.00 0.00 0.00 68 1020.1
20211207203810 26 183 0.9 6.1 0.00 0.00 0.00 68 1020.2
20211207203609 26 182 0.9 6.1 0.00 0.00 0.00 68 1020.2
20211207203409 26 159 0.9 7.0 0.00 0.00 0.00 68 1020.2
20211207203209 26 164 0.9 7.0 0.00 0.00 0.00 68 1020.3
20211207203008 26 195 1.7 7.0 0.00 0.00 0.00 67 1020.1
20211207202808 26 194 1.7 7.0 0.00 0.00 0.00 67 1020.2
20211207202607 26 228 1.7 7.0 0.00 0.00 0.00 67 1020.2
20211207202407 26 231 1.7 6.1 0.00 0.00 0.00 67 1020.2
20211207202207 26 230 1.7 6.1 0.00 0.00 0.00 68 1020.1
20211207202007 26 141 0.9 5.2 0.00 0.00 0.00 69 1020.1
20211207201807 26 218 0.9 5.2 0.00 0.00 0.00 68 1020.2
20211207201606 26 247 0.9 5.2 0.00 0.00 0.00 68 1020.2
20211207201406 26 146 1.7 5.2 0.00 0.00 0.00 68 1020.2
20211207201205 26 152 0.9 4.3 0.00 0.00 0.00 68 1020.1
20211207201005 26 141 0.9 7.8 0.00 0.00 0.00 69 1020.1
20211207200805 26 87 0.9 7.8 0.00 0.00 0.00 69 1020.1
20211207200604 26 118 1.7 7.8 0.00 0.00 0.00 69 1020.3
20211207200404 26 138 0.9 7.8 0.00 0.00 0.00 69 1020.4
20211207200204 26 193 0.9 7.0 0.00 0.00 0.00 70 1020.4
20211207200003 26 183 1.7 7.8 0.00 0.00 0.00 69 1020.4
20211207195803 26 173 0.9 7.8 0.00 0.00 0.00 69 1020.4
20211207195602 26 164 2.6 7.8 0.00 0.00 0.00 70 1020.4
20211207195402 26 178 2.6 7.8 0.00 0.00 0.00 69 1020.3
20211207195202 26 216 0.9 6.1 0.00 0.00 0.00 69 1020.3
20211207195002 26 143 0.9 6.1 0.00 0.00 0.00 69 1020.3
20211207194801 26 245 0.9 6.1 0.00 0.00 0.00 69 1020.3
20211207194601 26 111 1.7 6.1 0.00 0.00 0.00 69 1020.3
20211207194401 26 136 1.7 6.1 0.00 0.00 0.00 69 1020.2
20211207194200 26 178 1.7 7.0 0.00 0.00 0.00 68 1020.2
20211207194000 26 190 1.7 7.0 0.00 0.00 0.00 68 1020.3
20211207193800 26 182 0.9 7.0 0.00 0.00 0.00 68 1020.3
20211207193559 26 171 1.7 7.0 0.00 0.00 0.00 69 1020.1
20211207193359 26 189 1.7 7.0 0.00 0.00 0.00 68 1020.1
20211207193158 26 231 0.9 7.0 0.00 0.00 0.00 69 1020.1
20211207192958 26 172 1.7 5.2 0.00 0.00 0.00 69 1020.1
20211207192758 26 141 0.9 7.8 0.00 0.00 0.00 69 1020.1
20211207192557 26 171 0.9 7.8 0.00 0.00 0.00 70 1020.2
20211207192357 26 205 1.7 7.8 0.00 0.00 0.00 69 1020.2
20211207192157 26 167 1.7 7.8 0.00 0.00 0.00 69 1020.2
20211207191957 26 200 3.5 7.8 0.00 0.00 0.00 68 1020.2
20211207191756 26 188 2.6 7.0 0.00 0.00 0.00 68 1020.3
20211207191556 26 177 1.7 7.0 0.00 0.00 0.00 68 1020.3
20211207191356 26 173 1.7 7.0 0.00 0.00 0.00 69 1020.3
20211207191155 26 229 1.7 8.7 0.00 0.00 0.00 69 1020.2
20211207190955 26 174 2.6 8.7 0.00 0.00 0.00 69 1020.3
20211207190755 26 244 1.7 8.7 0.00 0.00 0.00 69 1020.5
20211207190554 26 245 1.7 8.7 0.00 0.00 0.00 70 1020.5
20211207190354 26 190 1.7 8.7 0.00 0.00 0.00 69 1020.4
20211207190154 26 191 1.7 6.1 0.00 0.00 0.00 70 1020.4
20211207185953 26 193 1.7 6.1 0.00 0.00 0.00 70 1020.3
20211207185753 26 221 1.7 6.1 0.00 0.00 0.00 70 1020.3
20211207185553 26 188 1.7 6.1 0.00 0.00 0.00 70 1020.4
20211207185352 26 174 1.7 6.1 0.00 0.00 0.00 70 1020.3
20211207185152 26 199 0.9 7.0 0.00 0.00 0.00 71 1020.4
20211207184952 26 201 0.9 7.0 0.00 0.00 0.00 71 1020.3
20211207184751 26 166 0.9 7.0 0.00 0.00 0.00 72 1020.3
20211207184551 26 169 1.7 7.0 0.00 0.00 0.00 71 1020.3
20211207184350 26 191 2.6 7.0 0.00 0.00 0.00 71 1020.4
20211207184150 26 186 1.7 7.0 0.00 0.00 0.00 71 1020.3
20211207183950 26 121 0.9 8.7 0.00 0.00 0.00 72 1020.3
20211207183749 26 174 1.7 8.7 0.00 0.00 0.00 72 1020.2
20211207183349 26 260 1.7 8.7 0.00 0.00 0.00 72 1020.3
20211207183148 26 230 1.7 8.7 0.00 0.00 0.00 72 1020.3
20211207182948 26 257 1.7 7.8 0.00 0.00 0.00 72 1020.3
20211207182748 26 234 0.9 7.8 0.00 0.00 0.00 72 1020.4
20211207182547 26 228 1.7 7.8 0.00 0.00 0.00 72 1020.5
20211207182347 26 243 0.9 7.8 0.00 0.00 0.00 73 1020.3
20211207182147 26 205 0.9 5.2 0.00 0.00 0.00 74 1020.3
20211207181946 26 233 1.7 5.2 0.00 0.00 0.00 73 1020.3
20211207181746 26 214 1.7 5.2 0.00 0.00 0.00 73 1020.4
20211207181546 26 192 1.7 4.3 0.00 0.00 0.00 73 1020.5
20211207181345 26 209 0.9 4.3 0.00 0.00 0.00 74 1020.3
20211207181145 26 208 0.9 4.3 0.00 0.00 0.00 74 1020.3
20211207180945 26 187 0.9 4.3 0.00 0.00 0.00 75 1020.4
20211207180744 26 207 0.9 5.2 0.00 0.00 0.00 74 1020.4
20211207180544 26 216 0.9 5.2 0.00 0.00 0.00 74 1020.4
20211207180343 26 232 0.9 5.2 0.00 0.00 0.00 74 1020.4
20211207180143 26 222 1.7 5.2 0.00 0.00 0.00 74 1020.5
20211207175943 26 207 1.7 6.1 0.00 0.00 0.00 74 1020.6
20211207175743 26 251 0.9 7.0 0.00 0.00 0.00 75 1020.6
20211207175542 25 197 0.9 7.0 0.00 0.00 0.00 74 1020.5
20211207175342 25 189 1.7 7.0 0.00 0.00 0.00 74 1020.5
20211207175142 26 235 2.6 7.0 0.00 0.00 0.00 74 1020.6
20211207174941 26 229 2.6 7.0 0.00 0.00 0.00 74 1020.5
20211207174741 26 246 1.7 5.2 0.00 0.00 0.00 75 1020.6
20211207174540 26 244 0.9 6.1 0.00 0.00 0.00 75 1020.7
20211207174340 26 233 0.9 6.1 0.00 0.00 0.00 75 1020.7
20211207174140 26 209 1.7 6.1 0.00 0.00 0.00 75 1020.7
20211207173940 26 203 2.6 6.1 0.00 0.00 0.00 75 1020.7
20211207173739 26 158 1.7 12.2 0.00 0.00 0.00 74 1020.7
20211207173538 26 203 1.7 12.2 0.00 0.00 0.00 74 1020.7
20211207173338 26 236 2.6 12.2 0.00 0.00 0.00 74 1020.7
20211207173138 26 254 4.3 12.2 0.00 0.00 0.00 73 1020.7
20211207172937 26 205 3.5 12.2 0.00 0.00 0.00 72 1020.7
20211207172737 26 192 2.6 8.7 0.00 0.00 0.00 74 1020.7
20211207172537 26 244 3.5 7.0 0.00 0.00 0.00 74 1020.7
20211207172336 26 250 2.6 7.0 0.00 0.00 0.00 73 1020.6
20211207172136 27 238 2.6 6.1 0.00 0.00 0.00 70 1020.5
20211207171936 27 234 1.7 6.1 0.00 0.00 0.00 68 1020.5
20211207171735 27 217 1.7 6.1 0.00 0.00 0.00 68 1020.3
20211207171535 27 196 1.7 6.1 0.00 0.00 0.00 67 1020.3
20211207171335 27 249 1.7 7.8 0.00 0.00 0.00 67 1020.3
20211207171134 27 244 1.7 7.8 0.00 0.00 0.00 67 1020.4
20211207170934 27 224 1.7 7.8 0.00 0.00 0.00 68 1020.4
20211207170734 27 228 2.6 7.8 0.00 0.00 0.00 68 1020.4
20211207170533 27 177 1.7 7.8 0.00 0.00 0.00 67 1020.3
20211207170333 27 229 2.6 7.8 0.00 0.00 0.00 67 1020.3
20211207170133 27 256 2.6 8.7 0.00 0.00 0.00 66 1020.4
20211207165932 27 243 2.6 8.7 0.00 0.00 0.00 67 1020.3
20211207165732 27 220 2.6 8.7 0.00 0.00 0.00 67 1020.3
20211207165532 27 250 3.5 8.7 0.00 0.00 0.00 67 1020.4
20211207165331 27 240 3.5 8.7 0.00 0.00 0.00 67 1020.4
20211207165131 27 213 1.7 7.8 0.00 0.00 0.00 68 1020.5
20211207164931 27 238 1.7 7.8 0.00 0.00 0.00 67 1020.5
20211207164730 27 236 2.6 7.8 0.00 0.00 0.00 66 1020.5
20211207164530 27 201 1.7 6.1 0.00 0.00 0.00 67 1020.5
20211207164330 27 232 0.9 6.1 0.00 0.00 0.00 67 1020.5
20211207164129 27 201 0.9 4.3 0.00 0.00 0.00 67 1020.4
20211207163929 27 175 0.9 4.3 0.00 0.00 0.00 67 1020.5
20211207163729 27 216 0.9 8.7 0.00 0.00 0.00 68 1020.5
20211207163527 27 264 1.7 8.7 0.00 0.00 0.00 67 1020.5
20211207163327 27 231 0.9 8.7 0.00 0.00 0.00 66 1020.6
20211207163127 27 190 1.7 8.7 0.00 0.00 0.00 66 1020.7
20211207162927 26 251 2.6 8.7 0.00 0.00 0.00 66 1020.6
20211207162726 26 254 1.7 7.0 0.00 0.00 0.00 66 1020.7
20211207162526 26 243 2.6 6.1 0.00 0.00 0.00 66 1020.7
20211207162325 26 230 2.6 8.7 0.00 0.00 0.00 66 1020.8
20211207162125 26 229 2.6 9.6 0.00 0.00 0.00 66 1020.8
20211207161925 26 200 2.6 9.6 0.00 0.00 0.00 66 1020.8
20211207161724 26 243 3.5 9.6 0.00 0.00 0.00 65 1020.9
20211207161524 26 219 3.5 9.6 0.00 0.00 0.00 65 1020.9
20211207161324 26 192 2.6 9.6 0.00 0.00 0.00 66 1021.0
20211207161123 26 224 1.7 7.8 0.00 0.00 0.00 66 1021.0
20211207160923 26 212 1.7 7.8 0.00 0.00 0.00 66 1021.0
20211207160723 26 209 2.6 7.8 0.00 0.00 0.00 66 1021.1
20211207160522 26 205 2.6 7.8 0.00 0.00 0.00 66 1021.0
20211207160322 26 201 1.7 7.0 0.00 0.00 0.00 66 1021.0
20211207160122 26 218 2.6 7.0 0.00 0.00 0.00 66 1021.1
20211207155921 27 220 2.6 11.3 0.00 0.00 0.00 66 1021.1
20211207155721 27 219 0.9 11.3 0.00 0.00 0.00 67 1021.2
20211207155521 27 224 1.7 11.3 0.00 0.00 0.00 67 1021.2
20211207155320 27 193 2.6 11.3 0.00 0.00 0.00 67 1021.2
20211207155120 27 183 1.7 11.3 0.00 0.00 0.00 67 1021.3
20211207154920 26 214 1.7 7.0 0.00 0.00 0.00 67 1021.3
20211207154719 26 241 1.7 7.0 0.00 0.00 0.00 66 1021.3
20211207154519 26 224 0.9 7.8 0.00 0.00 0.00 67 1021.4
20211207154318 26 235 1.7 7.8 0.00 0.00 0.00 67 1021.4
20211207154118 26 257 2.6 7.8 0.00 0.00 0.00 67 1021.5
20211207153918 26 239 3.5 7.8 0.00 0.00 0.00 66 1021.4
20211207153718 26 231 1.7 7.8 0.00 0.00 0.00 67 1021.5
20211207153516 26 213 2.6 6.1 0.00 0.00 0.00 66 1021.5
20211207153316 26 218 1.7 6.1 0.00 0.00 0.00 66 1021.5
20211207153116 26 238 0.9 6.1 0.00 0.00 0.00 66 1021.5
20211207152915 26 222 1.7 6.1 0.00 0.00 0.00 65 1021.4
20211207152715 26 214 1.7 6.1 0.00 0.00 0.00 66 1021.3
20211207152514 26 214 1.7 6.1 0.00 0.00 0.00 65 1021.3
20211207152313 26 214 2.6 6.1 0.00 0.00 0.00 64 1021.2
20211207152113 26 191 3.5 7.0 0.00 0.00 0.00 64 1021.1
20211207151913 26 214 2.6 7.0 0.00 0.00 0.00 65 1021.2
20211207151713 26 227 1.7 7.0 0.00 0.00 0.00 65 1021.0
20211207151511 26 196 1.7 7.0 0.00 0.00 0.00 65 1021.0
20211207151311 26 170 1.7 7.0 0.00 0.00 0.00 65 1021.0
20211207151111 26 214 2.6 7.8 0.00 0.00 0.00 65 1020.9
20211207150910 26 222 1.7 7.8 0.00 0.00 0.00 64 1020.9
20211207150710 26 155 0.9 7.8 0.00 0.00 0.00 64 1020.9
20211207150510 26 96 1.7 7.8 0.00 0.00 0.00 64 1020.8
20211207150309 26 82 0.9 7.8 0.00 0.00 0.00 65 1020.8
20211207150109 26 182 0.9 4.3 0.00 0.00 0.00 66 1020.8
20211207145909 26 220 0.9 4.3 0.00 0.03 0.00 64 1020.8
20211207145708 26 127 0.9 4.3 0.00 0.03 0.00 65 1020.7
20211207145508 26 211 1.7 6.1 0.00 0.03 0.00 65 1020.7
20211207145308 26 208 0.9 6.1 0.00 0.03 0.00 65 1020.8
20211207145107 26 147 0.9 7.0 0.00 0.03 0.00 65 1020.7
20211207144907 26 188 1.7 7.0 0.00 0.03 0.00 65 1020.7
20211207144707 26 154 0.9 7.0 0.00 0.03 0.00 65 1020.7
20211207144506 26 171 1.7 7.0 0.00 0.03 0.00 65 1020.7
20211207144306 26 190 1.7 7.0 0.00 0.03 0.00 65 1020.6
20211207144106 26 253 0.0 6.1 0.00 0.03 0.00 66 1020.6
20211207143905 26 192 0.9 5.2 0.00 0.03 0.00 67 1020.6
20211207143705 26 140 1.7 8.7 0.00 0.03 0.00 66 1020.6
20211207143504 26 204 0.9 8.7 0.00 0.03 0.00 66 1020.5
20211207143304 26 188 0.9 8.7 0.00 0.03 0.00 67 1020.5
20211207143104 26 219 1.7 8.7 0.00 0.03 0.00 67 1020.5
20211207142904 26 191 1.7 8.7 0.00 0.03 0.00 67 1020.6
20211207142703 26 116 0.9 8.7 0.00 0.03 0.00 68 1020.5
20211207142502 26 175 0.9 8.7 0.00 0.03 0.00 68 1020.6
20211207142305 26 274 0.9 8.7 0.00 0.03 0.00 68 1020.5
20211207142101 26 200 1.7 8.7 0.00 0.03 0.00 68 1020.5
20211207141901 25 218 0.9 6.1 0.00 0.03 0.00 68 1020.5
20211207141701 25 66 0.9 6.1 0.00 0.03 0.00 70 1020.5
20211207141500 25 157 1.7 6.1 0.00 0.03 0.00 69 1020.5